Location: LDNL
(36.4545°S, 141.6685°E)
Time: 11:56:02
(UTC+10:00)

A-11 Canister half - Pass Details

Date: 18 August 2022
Orbit: 1524 x 1684 km, 47.3° (Epoch: 26 September)

Event Time Altitude Azimuth Distance (km) Brightness Sun altitude
Rises 23:19:07 0° 239° (WSW) 4,701 12.0 -60.7°
Reaches altitude 10° 23:22:15 10° 243° (WSW) 3,724 11.3 -61.1°
Enters shadow 23:22:43 12° 244° (WSW) 3,581 11.2 -61.2°
Maximum altitude 23:31:11 50° 315° (NW) 1,911 - -62.2°
Drops below altitude 10° 23:40:20 10° 27° (NNE) 3,799 - -63.3°
Sets 23:43:35 0° 32° (NNE) 4,802 - -63.6°
